Regional Weather Roundup
Issued by NWS Little Rock, AR

Home | Current Version | Previous Version | Graphics & Text | Print | Product List | Glossary On
Versions: 1 2 3 4 5 6 7 8 9 10 11 12 13 14 15 16 17 18 19 20 21 22 23 24 25 26 27 28 29 30 31 32
000
ASUS44 KLZK 221605
RWRLZK

WEATHER ROUNDUP FOR ARKANSAS
NATIONAL WEATHER SERVICE LITTLE ROCK AR
1000 AM CST MON JAN 22 2018

NOTE: "FAIR" INDICATES FEW OR NO CLOUDS BELOW 12,000 FEET WITH NO
SIGNIFICANT WEATHER AND/OR OBSTRUCTIONS TO VISIBILITY.

ARZ001-003-010-029-221700-
NORTHWEST ARKANSAS

CITY           SKY/WX    TMP DP  RH WIND       PRES   REMARKS
FAYETTEVILLE   CLOUDY    40  30  67 SW16G28   29.74R
FORT SMITH     SUNNY     46  30  53 W28G37    29.79S
HARRISON       SUNNY     44  27  51 SW20G29   29.69F
BENTONVILLE    CLOUDY    40  29  64 SW24G30   29.72R
ROGERS         CLOUDY    40  29  64 SW17G30   29.70S
SILOAM SPGS    MOSUNNY   41  29  62 SW20G25   29.73R
HIGHFILL       PTSUNNY   40  29  64 SW18G31   29.71R
SPRINGDALE     PTSUNNY   41  28  60 SW20G28   29.73R
$$

ARZ004-005-016-221700-
NORTH CENTRAL ARKANSAS

CITY           SKY/WX    TMP DP  RH WIND       PRES   REMARKS
BATESVILLE     FAIR      54  42  64 SW14      29.75R
FLIPPIN        SUNNY     49  31  49 SW13G21   29.71R
MTN HOME       SUNNY     48  33  56 VRB7G17   29.69R
$$

ARZ040-041-221700-
WEST CENTRAL ARKANSAS

CITY           SKY/WX    TMP DP  RH WIND       PRES   REMARKS
MENA           SUNNY     46  32  57 SW14      29.85R
MOUNT IDA      SUNNY     50  31  48 VRB3      29.81R
$$

ARZ009-017-025-026-028-221700-
NORTHEAST ARKANSAS

CITY           SKY/WX    TMP DP  RH WIND       PRES   REMARKS
JONESBORO      FAIR      55  48  77 S18G26    29.75S
NEWPORT        FAIR      54  48  80 SW21      29.75S
WALNUT RIDGE   FAIR      54  48  80 SW17      29.73R
BLYTHEVILLE    FAIR      56  56 100 S13       29.77S
NW BLYTHEVILLE SUNNY     57  50  77 S14G22    29.76S
$$

ARZ022-023-033-042-044-221700-
CENTRAL ARKANSAS

CITY           SKY/WX    TMP DP  RH WIND       PRES   REMARKS
LITTLE ROCK    FAIR      53  40  61 SW14      29.82R
N LITTLE ROCK    N/A     52  42  69 W8G16     29.75R
JACKSONVILLE   FAIR      54  37  53 W17       29.79R
SEARCY         FAIR      55  47  74 SW13      29.79R
HOT SPRINGS    FAIR      50  38  63 SW10      29.85R
RUSSELLVILLE   SUNNY     50  31  48 W8        29.80R
CLINTON        FAIR      48  32  53 SW14G21   29.77R
$$

ARZ036-221700-
EAST ARKANSAS

CITY           SKY/WX    TMP DP  RH WIND       PRES   REMARKS
WEST MEMPHIS   FAIR      55  32  41 S17       29.80S
$$

ARZ050-053-066-070-073-221700-
SOUTHWEST ARKANSAS

CITY           SKY/WX    TMP DP  RH WIND       PRES   REMARKS
ARKADELPHIA    FAIR      51  33  50 W16G22    29.89R
CAMDEN         FAIR      55  30  38 W12       29.90R
TEXARKANA      FAIR      48  31  51 W15G24    29.94R
EL DORADO      FAIR      54  38  54 W8        29.92R
DE QUEEN       SUNNY     47  33  58 W17       29.90R
$$

ARZ056-057-069-221700-
SOUTHEAST ARKANSAS

CITY           SKY/WX    TMP DP  RH WIND       PRES   REMARKS
PINE BLUFF     FAIR      54  38  54 SW15      29.85R
STUTTGART      FAIR      56  41  57 SW17      29.83R
MONTICELLO     FAIR      57  40  52 W12G20    29.88R

$$






USA.gov is the U.S. government's official web portal to all federal, state and local government web resources and services.